This is the latest recevied weather packets stored in our database for station/object K5GHS-1. If no packets are shown the sender has not sent any weather packets the latest 10 day(s).
| Time | Temp. | Humidity | Pressure | Rain* | Wind** | Luminosity | Snow |
|---|---|---|---|---|---|---|---|
| 1777733736 | 21.11° C | 51% | 1020 hPa | 0 mm | - | 429 W/m² | - |
| 1777733433 | 20.56° C | 50% | 1020.1 hPa | 0 mm | - | 444 W/m² | - |
| 1777733129 | 21.11° C | 51% | 1020.2 hPa | 0 mm | - | 387 W/m² | - |
| 1777732826 | 20.56° C | 52% | 1020.1 hPa | 0 mm | - | 327 W/m² | - |
| 1777732522 | 20.56° C | 50% | 1020.1 hPa | 0 mm | - | 344 W/m² | - |
| 1777732221 | 20.56° C | 52% | 1020.1 hPa | 0 mm | - | 331 W/m² | - |
| 1777731917 | 20° C | 50% | 1020 hPa | 0 mm | - | 311 W/m² | - |
| 1777731614 | 20° C | 51% | 1020.1 hPa | 0 mm | - | 295 W/m² | - |
| 1777731312 | 19.44° C | 53% | 1019.8 hPa | 0 mm | - | 284 W/m² | - |
| 1777731009 | 18.89° C | 53% | 1019.9 hPa | 0 mm | - | 232 W/m² | - |
| 1777730708 | 18.89° C | 52% | 1019.7 hPa | 0 mm | - | 232 W/m² | - |
| 1777730403 | 18.89° C | 53% | 1020 hPa | 0 mm | - | 226 W/m² | - |
| 1777730099 | 18.89° C | 56% | 1019.8 hPa | 0 mm | - | 211 W/m² | - |
| 1777729796 | 18.89° C | 56% | 1019.7 hPa | 0 mm | - | 199 W/m² | - |
| 1777729493 | 17.78° C | 60% | 1019.7 hPa | 0 mm | - | 172 W/m² | - |
| 1777729190 | 17.22° C | 62% | 1019.8 hPa | 0 mm | - | 155 W/m² | - |
| 1777728886 | 16.67° C | 62% | 1019.7 hPa | 0 mm | - | 149 W/m² | - |
| 1777728583 | 16.67° C | 63% | 1019.4 hPa | 0 mm | - | 138 W/m² | - |
| 1777728280 | 15.56° C | 66% | 1019.8 hPa | 0 mm | - | 122 W/m² | - |
| 1777727978 | 15° C | 69% | 1019.5 hPa | 0 mm | - | 115 W/m² | - |
| 1777727674 | 14.44° C | 76% | 1019.6 hPa | 0 mm | - | 113 W/m² | - |
| 1777727371 | 13.33° C | 82% | 1019.3 hPa | 0 mm | - | 103 W/m² | - |
| 1777727068 | 11.67° C | 86% | 1019.1 hPa | 0 mm | - | 84 W/m² | - |
| 1777726766 | 11.11° C | 88% | 1019.3 hPa | 0 mm | - | 71 W/m² | - |
| 1777726463 | 10.56° C | 90% | 1019.1 hPa | 0 mm | - | 42 W/m² | - |
* Rain latest hour (hover to see other rain measurements)
** Current wind speed in m/s (hover to see current wind gust speed)